Погода в Верхнеозерском

Россия / Архангельская область     64°28′40″N   37°56′05″E
темп.,
°C
ветер,
м/с
пор.,
м/с
влажн.,
%
обл.,
%
осадки,
мм/ч
давл.,
гПа
погр.,
м
12 мая, ср
ср1200:00+10ююз51482100 0.0 1020327
03:00+9ююз41286100 0.0 1021247
06:00+10ююз3108191 0.0 1022222
09:00+14юз48707 0.0 1022320
12:00+18юз485713 0.0 1023555
15:00+21юз47498 0.0 1023697
18:00+19ююз24537 0.0 1022256
21:00+15ю23690 0.0 102247
13 мая, чт
чт1300:00+12ю25790 0.0 102276
03:00+10ююз25860 0.0 102281
06:00+12ююз37730 0.0 1021143
09:00+15ююз47596 0.0 1021250
12:00+19ююз37507 0.0 1020445
15:00+22юз36426 0.0 1018800
18:00+22ююз13430 0.0 1017389
21:00+15ю35695 0.0 101687
14 мая, пт
пт1400:00+13ююз228118 0.1 101629
03:00+12ююз22895 0.3 101415
06:00+15ю12797 0.1 101378
09:00+20ю23587 0.1 1011554
12:00+20ю5759100 2.1 1010969
15:00+12юз61479100 3.5 1011380
18:00+12юз258017 0.1 1011233
21:00+11ю228742 0.1 101123
15 мая, сб
сб1500:00+8юз249619 0.1 101171
03:00+9ююз239599 0.1 101198
06:00+10ююз119491 0.0 1012121
09:00+11ссз0190100 0.0 1013201
12:00+12ссв3282100 0.0 1014353
15:00+13ссв457587 0.0 1014431
18:00+12св4776100 0.0 1013380
21:00+11св41077100 0.0 1012386
16 мая, вс
вс1600:00+11св41080100 0.0 1011384
03:00+9св41182100 0.0 1009382
06:00+8св41082100 0.0 1008350
09:00+10св5979100 0.0 1006402
12:00+8св51291100 1.4 1006410
15:00+7ссв51193100 2.2 1006408
18:00+7с51089100 0.1 1006424
21:00+6с41091100 0.1 1007317